AO-07 1 07530U 74089B 17074.93749292 -.00000035 00000-0 59409-4 0 9997 2 07530 101.6195 045.5018 0012211 141.5933 234.4908 12.53625898936946 UO-11 1 14781U 84021B 17074.91377561 .00000094 00000-0 17904-4 0 9992 2 14781 097.7102 124.0030 0009515 138.4571 221.7368 14.82868338755522 LO-19 1 20442U 90005G 17074.78059562 .00000002 00000-0 16801-4 0 9999 2 20442 098.5694 012.2785 0012890 065.8888 294.3643 14.32851581418184 HUBBLE 1 20580U 90037B 17074.83392361 .00000511 00000-0 20588-4 0 9992 2 20580 028.4694 264.3523 0002560 248.4647 311.6717 15.08701713276175 MET-2/21 1 22782U 93055A 17074.61348032 .00000024 00000-0 86522-5 0 9993 2 22782 082.5458 097.8507 0021842 336.8740 138.1492 13.83797214188751 AO-27 1 22825U 93061C 17074.85260012 .00000003 00000-0 18676-4 0 9996 2 22825 098.8012 039.3443 0007398 240.8823 119.1618 14.29988765223798 IO-26 1 22826U 93061D 17074.90506077 -.00000002 00000-0 16913-4 0 9999 2 22826 098.7954 039.4904 0008021 230.4527 129.5946 14.30316661223999 FO-29 1 24278U 96046B 17074.69708114 -.00000005 00000-0 32860-4 0 9992 2 24278 098.5772 330.3363 0349687 219.4624 138.0570 13.53074943015985 NOAA-15 1 25338U 98030A 17074.95078633 .00000013 00000-0 24238-4 0 9998 2 25338 098.7852 085.6624 0011624 115.3259 244.9126 14.25781088979459 GO-32 1 25397U 98043D 17074.85866279 -.00000005 00000-0 16613-4 0 9997 2 25397 098.6014 019.2076 0000166 310.9999 049.1165 14.23616958970292 ISS 1 25544U 98067A 17074.91986111 .00002244 00000-0 41038-4 0 9997 2 25544 051.6434 143.2189 0007039 297.7891 048.6338 15.54212656047241 NO-44 1 26931U 01043C 17074.90627852 -.00000008 00000-0 28678-4 0 9991 2 26931 067.0526 331.8731 0007456 278.7517 081.2739 14.30450679806939 SO-50 1 27607U 02058C 17074.93330397 -.00000010 00000-0 19031-4 0 9993 2 27607 064.5557 050.5208 0035432 140.8760 219.4915 14.75294150765220 CO-55 1 27844U 03031E 17074.91635841 .00000040 00000-0 37857-4 0 9996 2 27844 098.6921 085.2715 0008621 255.5586 104.4635 14.22021101711021 CO-57 1 27848U 03031J 17074.96130238 .00000034 00000-0 35418-4 0 9999 2 27848 098.7016 085.5343 0008503 265.6963 094.3243 14.21637867710922 RS-22 1 27939U 03042A 17074.92673206 .00000124 00000-0 30781-4 0 9993 2 27939 097.9234 222.7548 0013605 157.0480 002.6658 14.66532724719505 NOAA-18 1 28654U 05018A 17074.96570887 .00000009 00000-0 30303-4 0 9990 2 28654 099.1899 094.8686 0013816 336.9097 023.1451 14.12328602609009 CO-58 1 28895U 05043F 17074.01971585 .00000135 00000-0 34772-4 0 9995 2 28895 097.8528 240.7107 0018218 082.7909 277.5364 14.63356004606715 CO-65 1 32785U 08021C 17074.49291598 .00000206 00000-0 28209-4 0 9995 2 32785 097.5757 103.0032 0014600 116.3623 243.9095 14.87817606480898 AAUSAT2 1 32788U 08021F 17074.65608624 .00000780 00000-0 78695-4 0 9999 2 32788 097.5702 114.1174 0013639 085.1658 275.1120 14.93729198481716 DO-64 1 32789U 08021G 17074.92479484 .00001210 00000-0 90574-4 0 9999 2 32789 097.5695 135.0901 0013986 062.8458 297.4192 15.04505211482744 CO-66 1 32791U 08021J 17074.03560692 .00000408 00000-0 47626-4 0 9994 2 32791 097.5737 106.6354 0015056 105.2591 255.0293 14.90120835481043 RS-30 1 32953U 08025A 17074.92095157 .00000015 00000-0 32792-4 0 9997 2 32953 082.5010 297.6633 0019417 127.3605 232.9246 12.43075280399834 PRISM 1 33493U 09002B 17074.89944925 .00000946 00000-0 90932-4 0 9998 2 33493 098.1830 313.3329 0016692 034.3424 325.8856 14.95515504441837 NOAA-19 1 33591U 09005A 17074.88612258 .00000096 00000-0 77450-4 0 9996 2 33591 099.0818 040.4425 0014049 170.5544 189.5894 14.12161304417224 TISAT-1 1 36799U 10035E 17074.88643869 .00000478 00000-0 55296-4 0 9994 2 36799 098.0488 195.8052 0011119 273.1140 086.8804 14.90266212361685 JUGNU 1 37839U 11058B 17074.91042229 .00000337 00000-0 37749-4 0 9990 2 37839 019.9616 296.0582 0018969 235.0719 240.7379 14.12574843280490 SRMSAT 1 37841U 11058D 17074.90359465 .00000322 00000-0 32105-4 0 9990 2 37841 019.9729 335.8618 0012012 136.6536 302.5115 14.10567180280002 AO-71 1 37854U 11061E 17074.37749567 .00001052 00000-0 64718-4 0 9991 2 37854 101.7113 260.2561 0168628 352.5484 007.3224 15.03714632292381 HRBE 1 37855U 11061F 17074.92169271 .00001028 00000-0 62326-4 0 9997 2 37855 101.7233 258.9422 0181926 356.8339 003.1706 15.02669708292311 ALMASAT-1 1 38078U 12006B 17074.97622787 .00020114 35648-5 25134-3 0 9999 2 38078 069.4398 022.4378 0323207 067.7513 295.7589 15.17479736270621 HORYU-2 1 38340U 12025D 17074.89841797 .00000192 00000-0 36552-4 0 9997 2 38340 098.3758 075.5425 0010706 224.1758 135.8596 14.75272595259539 RS-40 1 38735U 12041C 17074.89048442 .00000016 00000-0 47426-4 0 9996 2 38735 082.4795 022.3545 0015685 230.0725 129.8977 12.42573046210109 BEESAT-3 1 39134U 13015E 17074.64307694 .00001280 00000-0 73013-4 0 9997 2 39134 064.8683 168.3038 0030947 294.1771 065.6120 15.17402663214901 BEESAT-2 1 39136U 13015G 17074.70065123 .00000931 00000-0 59975-4 0 9997 2 39136 064.8703 177.5356 0028381 295.7860 064.0337 15.14768700215117 ZACUBE-1 1 39417U 13066B 17074.76719133 .00000221 00000-0 34672-4 0 9997 2 39417 097.6420 121.4827 0058667 214.2690 145.4732 14.80639946178951 TRITON-1 1 39427U 13066M 17074.84106364 .00000202 00000-0 40830-4 0 9995 2 39427 097.6441 096.4266 0112996 287.9803 070.9113 14.67398969177352 GOMX-1 1 39430U 13066Q 17074.95965911 .00000227 00000-0 50662-4 0 9993 2 39430 097.6646 081.1103 0151438 338.0104 021.4643 14.58809565176155 LO-74 1 39440U 13066AA 17074.92608291 .00000179 00000-0 32366-4 0 9993 2 39440 097.6399 111.5530 0079577 242.3750 116.9364 14.75384828177149 AO-73 1 39444U 13066AE 17074.65744797 .00000269 00000-0 40058-4 0 9996 2 39444 097.6435 122.3131 0057929 211.6642 148.1083 14.81356227177174 SPROUT 1 39770U 14029E 17074.84497968 .00000780 00000-0 95377-4 0 9996 2 39770 097.8692 175.1698 0007658 274.2378 085.7963 14.86039103152275 DUCHIFAT-1 1 40021U 14033M 17074.87476100 .00000358 00000-0 43267-4 0 9992 2 40021 097.9227 347.8925 0011662 246.9822 113.0166 14.89762923148701 NANOSATCBR1 1 40024U 14033Q 17074.70072181 .00000415 00000-0 49998-4 0 9999 2 40024 097.9191 346.7488 0010994 248.3983 111.6062 14.89105906148113 EO-79 1 40025U 14033R 17074.69811488 .00000312 00000-0 39793-4 0 9997 2 40025 097.9177 345.9224 0011173 251.1895 108.8109 14.88330731148071 DTUSAT-2 1 40030U 14033W 17074.74700012 .00000292 00000-0 37974-4 0 9995 2 40030 097.9146 345.1781 0010648 244.3426 115.6691 14.87956246148552 EO-80 1 40032U 14033Y 17074.91961461 .00000263 00000-0 34883-4 0 9997 2 40032 097.9153 345.3576 0010627 244.0198 115.9924 14.87890234148057 ANTELSAT 1 40034U 14033AA 17074.78646604 .00000205 00000-0 38440-4 0 9992 2 40034 097.8724 321.5452 0057914 232.5678 127.0253 14.73629220146637 VELOX-1 1 40057U 14034E 17074.81397548 .00000351 00000-0 57426-4 0 9999 2 40057 098.1853 173.6579 0010920 005.5239 354.6072 14.77029040145973 DAURIA DX 1 1 40071U 14037C 17071.98945661 .00000159 00000-0 27906-4 0 9994 2 40071 98.3287 179.2911 0008911 11.3561 348.7846 14.80971685144735 UKUBE-1 1 40074U 14037F 17074.80596428 .00000349 00000-0 49708-4 0 9999 2 40074 098.3371 185.5931 0004734 012.3264 347.8070 14.83404797145338 HODOYOSHI-1 1 40299U 14070B 17074.84604510 .00000777 00000-0 36952-4 0 9993 2 40299 097.4084 158.9975 0015067 063.1394 045.8294 15.22055767130744 CHUBUSAT-1 1 40300U 14070C 17074.85647568 .00000928 00000-0 45183-4 0 9991 2 40300 097.4016 156.4498 0022515 070.3305 040.9468 15.20637275130605 QSAT-EOS 1 40301U 14070D 17074.83439222 .00001905 00000-0 83776-4 0 9992 2 40301 097.3955 156.2437 0029736 066.8797 028.2078 15.22730491130629 FIREBIRD FU3 1 40377U 15003B 17074.88782002 .00001453 00000-0 66968-4 0 9996 2 40377 099.1158 240.3118 0137221 311.6147 047.3389 15.14709447116873 FIREBIRD FU4 1 40378U 15003C 17074.94739202 .00001420 00000-0 65490-4 0 9991 2 40378 099.1160 240.4138 0137420 311.3342 047.6126 15.14730349116883 GRIFEX 1 40379U 15003D 17074.91838375 .00001049 00000-0 52255-4 0 9992 2 40379 099.1168 238.5466 0142840 317.9007 041.1314 15.12451213116770 NO-84 1 40654U 15025D 17075.57195250 .00008606 00000-0 16690-3 0 03906 2 40654 054.9944 290.0591 0188097 034.1808 327.1081 15.31754516065695 NO-83 1 40655U 15025E 17075.55840308 .00012451 00000-0 20127-3 0 04326 2 40655 054.9807 271.4767 0160200 044.5364 316.8262 15.40144749065934 DEORBITSAIL 1 40719U 15032E 17074.70484548 .00000433 00000-0 70330-4 0 9998 2 40719 097.9911 329.5818 0018002 083.8985 276.4275 14.75941428090532 NUDT-PHONESAT 1 40900U 15049B 17074.96643824 .00001919 00000-0 95298-4 0 9990 2 40900 097.4450 084.2423 0014174 183.4877 176.6261 15.18810583082304 XW-2A 1 40903U 15049E 17074.91726476 .00001754 00000-0 48748-4 0 9998 2 40903 097.4300 099.4605 0013616 237.2815 122.7118 15.38206612083309 XW-2C 1 40906U 15049H 17074.94555342 .00000622 00000-0 37418-4 0 9991 2 40906 097.4559 082.3104 0015544 171.3681 188.7821 15.14323887082124 XW-2D 1 40907U 15049J 17074.93488782 .00000665 00000-0 39678-4 0 9991 2 40907 097.4527 082.0868 0014970 169.4016 190.7534 15.14413056082128 LILACSAT-2 1 40908U 15049K 17074.90722466 .00000363 00000-0 24181-4 0 9997 2 40908 097.4629 081.9188 0016563 167.5270 192.6375 15.12988910082067 XW-2F 1 40910U 15049M 17074.92234491 .00000991 00000-0 56168-4 0 9995 2 40910 097.4551 082.6141 0015922 167.8089 192.3531 15.15194023082158 XW-2B 1 40911U 15049N 17074.93880994 .00000650 00000-0 38907-4 0 9995 2 40911 097.4572 082.4184 0014858 169.6765 190.4775 15.14380320082026 DCBB 1 40912U 15049P 17074.78180041 .00001168 00000-0 61885-4 0 9991 2 40912 097.4520 084.0461 0016226 161.4514 304.5539 15.17255737082122 TW-1C 1 40926U 15051B 17074.81350794 .00006297 00000-0 15366-3 0 9997 2 40926 097.2417 115.1369 0013607 141.8546 305.8244 15.41125580082531 TW-1A 1 40928U 15051D 17074.78595377 .00003193 00000-0 95213-4 0 9995 2 40928 097.2385 112.2703 0013473 166.2809 307.9811 15.35304391082367 IO-86 1 40931U 15052B 17074.82696835 .00000713 00000-0 10284-4 0 9996 2 40931 005.9983 178.4862 0014001 004.5034 355.5231 14.76516554079140 GomX-3 1 40949U 98067HA 16292.18357804 .08527750 12374-4 77882-3 0 9992 2 40949 51.6055 106.7696 0006699 286.1344 73.8944 16.38002265 59645 LQSat 1 40958U 15057A 17074.84210784 .00000030 00000-0 12543-4 0 9999 2 40958 097.9852 151.7608 0018643 009.8626 350.2935 14.72948455077379 AO-85 1 40967U 15058D 17075.44226204 .00000178 00000-0 39861-4 0 04261 2 40967 064.7776 140.1871 0173939 112.4194 249.5440 14.75347657063434 ATHENOXAT-1 1 41168U 15077C 17074.58321759 .00002371 00000-0 98045-4 0 9992 2 41168 014.9855 133.0727 0012077 157.4341 079.5132 15.11217944068858 ChubuSat-2 1 41338U 16012B 17074.90545676 .00000368 00000-0 22188-4 0 9992 2 41338 031.0044 344.6691 0014117 216.5405 143.4268 14.99668731058974 ChubuSat-3 1 41339U 16012C 17074.91314577 .00000412 00000-0 25566-4 0 9991 2 41339 031.0116 343.9169 0013922 223.1615 136.7921 14.99879989058955 Horyu-4 1 41340U 16012D 17074.92577181 .00000528 00000-0 34080-4 0 9995 2 41340 031.0063 341.9330 0014462 230.4180 129.5178 15.00476008058990 OUFTI-1 1 41458U 16025C 17074.97010454 .00002190 00000-0 12227-3 0 9994 2 41458 098.1936 107.1801 0175139 240.9615 117.3965 15.02696739048586 e-st@r-II 1 41459U 16025D 17074.98222955 .00000483 00000-0 30970-4 0 9996 2 41459 098.1934 107.1602 0176068 240.7484 117.6038 15.02558247048572 AAUSAT4 1 41460U 16025E 17074.82988866 .00002777 00000-0 15447-3 0 9990 2 41460 098.1881 107.0617 0168912 240.2275 118.2023 15.03297585048568 MinXSS 1 41474U 98067HU 17074.51216250 .00082284 00000-0 37117-3 0 9997 2 41474 051.6434 118.6912 0004462 043.6995 316.4360 15.83297609047481 CADRE 1 41475U 98067HV 17003.74787607 .12518598 12537-4 55989-3 0 9998 2 41475 51.6110 110.0165 0004040 312.3134 47.7551 16.43344525 36494 NODES 1 1 41477U 98067HX 17074.54207299 .00029716 00000-0 22698-3 0 9995 2 41477 051.6337 126.3196 0003657 048.0969 312.0340 15.71917346047294 NODES 2 1 41478U 98067HY 17074.75236719 .00029538 00000-0 22788-3 0 9990 2 41478 051.6334 125.4722 0003524 048.0478 312.0820 15.71683460047329 LO-87 1 41557U 16033B 17074.88733054 .00001170 00000-0 47369-4 0 9994 2 41557 097.4691 154.4034 0013801 342.8575 017.2196 15.26657705044196 NuSat2 1 41558U 16033C 17074.84720088 .00001176 00000-0 47788-4 0 9995 2 41558 097.4718 154.4012 0013241 341.9576 018.1190 15.26535610044185 Lapan A3 1 41603U 16040E 17074.85644192 .00000116 00000-0 87639-5 0 9999 2 41603 097.4733 137.8986 0014935 044.8800 077.2255 15.19283203040485 Swayam 1 41607U 16040J 17074.68462152 .00001550 00000-0 74273-4 0 9990 2 41607 097.4717 137.8556 0015636 048.2552 312.0017 15.20345558040395 Pratham 1 41783U 16059A 17074.86128256 .00000041 00000-0 17449-4 0 9995 2 41783 098.1785 137.1473 0034987 093.5768 266.9436 14.62812390024950 AlSat 1N 1 41789U 16059G 17074.85841725 .00000149 00000-0 37450-4 0 9996 2 41789 098.1789 137.4669 0029956 088.2574 272.2035 14.64017889024953 ScatSat 1 41790U 16059H 17074.76678786 -.00000006 00000-0 93501-5 0 9996 2 41790 098.0777 128.7086 0012458 076.9839 283.2746 14.50097502024725 TY-1 1 41844U 16066D 17074.91033727 .00000974 00000-0 45931-4 0 9997 2 41844 097.4058 083.4876 0015380 200.2204 222.4295 15.21773724019150 CAS-2T 1 41845U 16066E 17074.93180086 -.00000069 00000-0 00000-0 0 9991 2 41845 098.7808 088.3197 0367238 164.8273 196.4299 14.37709259018095 Pegasus-1 1 41846U 16066F 17074.72709493 -.00000069 00000-0 00000-0 0 9998 2 41846 098.7833 087.9836 0368955 166.0636 195.1086 14.36903898018053 STARS-C 1 41895U 98067KR 17074.45517588 .00014439 00000-0 20099-3 0 9993 2 41895 051.6509 144.5905 0004965 327.3795 032.6865 15.57205394013367 Tancredo 1 1 41931U 98067KT 17074.76497316 .00029286 00000-0 37534-3 0 9992 2 41931 051.6412 142.9017 0008758 297.6155 062.3945 15.58875991008988 ITF-2 1 41932U 98067KU 17074.55370441 .00010704 00000-0 15535-3 0 9991 2 41932 051.6488 144.4921 0005960 286.8235 073.2082 15.56393739008946 AOBA-V3LOX3 1 41935U 98067KX 17074.74741638 .00012122 00000-0 17469-3 0 9999 2 41935 051.6508 143.5340 0005340 279.5978 080.4414 15.56441382009074 OSNSAT 1 41939U 98067KZ 17074.58942806 .00020654 00000-0 27728-3 0 9993 2 41939 051.6515 143.9888 0007908 280.1714 079.8300 15.57866685008315 EO-88 1 42017U 17008BX 17074.92651499 .00001828 00000-0 81899-4 0 9992 2 42017 097.5071 136.5326 0006777 172.2560 187.8730 15.22533963004301 /EX
